Weather in Yushala

Russia / Sverdlovsk Oblast     57°04′47″N   64°15′21″E
temp.,
°C
wind,
m/s
gust,
m/s
humid.,
%
clouds,
%
prec.,
mm/h
press.,
hPa
HPBL,
m
13 may, thu
thu1323:00+14w115617 0.0 102610
02:00+14wsw2558100 0.0 102568
05:00+13w310645 0.0 1025220
08:00+19wnw47475 0.0 1025406
11:00+24nw57335 0.0 10241773
14:00+27nnw572927 0.0 10232496
17:00+27nnw57275 0.0 10232853
20:00+22n224126 0.0 102333
14 may, fri
fri1423:00+17ese22625 0.0 102521
02:00+16s22655 0.0 102613
05:00+14s11735 0.0 102611
08:00+21ssw354869 0.0 1026422
11:00+27wsw35318 0.0 10252074
14:00+30w46235 0.0 10232849
17:00+30wsw58236 0.0 10223234
20:00+25w22365 0.0 102124
15 may, sat
sat1523:00+20wsw22455 0.0 102112
02:00+18w24505 0.0 102167
05:00+16w26585 0.0 1022118
08:00+23w47445 0.0 1021414
11:00+28w5830100 0.0 10201646
14:00+31wsw610229 0.0 10192994
17:00+31w6102220 0.0 10173675
20:00+26w410325 0.0 1017364
16 may, sun
sun1623:00+21w3114994 0.0 1017248
02:00+19wnw2570100 0.4 1018136
05:00+17w227668 0.4 101944
08:00+23wsw364861 0.0 1019436
11:00+28w5731100 0.0 10181086
14:00+31w692312 0.0 10162376
17:00+32wsw691842 0.0 10153708
20:00+27wsw410275 0.0 1014411
17 may, mon
mon1723:00+22w312390 0.0 1014281
02:00+18wsw38495 0.0 1015147
05:00+18wsw310550 0.0 1015201
08:00+24w373995 0.0 1015414
11:00+29w482912 0.0 10142456
14:00+26n41033100 0.5 10131752
17:00+30w782347 0.8 10103326
20:00+22nnw61050100 0.2 1013635